When you browse on this site, cookies collect data to enhance your experience and personalize the content and advertising you see.
Visit our Privacy Policy to learn more. By continuing to use the site, you agree to this use of cookies and data.
  • In Austria
  • List of Countries
  • For 7 days
  • Water Temperature
  • Weather Map
  • News
  • Weather Widgets
  • user-avatar
    Login

    Hourly Weather Pachuca de Soto

    Today, 22 January, Wednesday

    Time Temperature Precipitation Wind Pressure Humidity
    00:00 +8°C° 0 mm 1 mps 572 mmHg 85%
    01:00 +8°C° 0 mm 1 mps 571 mmHg 86%
    02:00 +7°C° 0 mm 1 mps 571 mmHg 86%
    03:00 +7°C° 0 mm 1 mps 571 mmHg 84%
    04:00 +6°C° 0 mm 2 mps 570 mmHg 82%
    05:00 +6°C° 0 mm 2 mps 570 mmHg 80%
    06:00 +8°C° 0 mm 2 mps 571 mmHg 73%
    07:00 +9°C° 0 mm 2 mps 572 mmHg 65%
    08:00 +12°C° 0 mm 2 mps 573 mmHg 58%
    09:00 +14°C° 0 mm 2 mps 574 mmHg 51%
    10:00 +16°C° 0 mm 3 mps 574 mmHg 44%
    11:00 +18°C° 0 mm 3 mps 575 mmHg 37%
    12:00 +19°C° 0 mm 3 mps 574 mmHg 35%
    13:00 +19°C° 0 mm 3 mps 574 mmHg 33%
    14:00 +20°C° 0 mm 3 mps 574 mmHg 31%
    15:00 +19°C° 0 mm 3 mps 573 mmHg 36%
    16:00 +18°C° 0 mm 3 mps 572 mmHg 40%
    17:00 +17°C° 0 mm 2 mps 572 mmHg 45%
    18:00 +16°C° 0 mm 2 mps 572 mmHg 50%
    19:00 +15°C° 0 mm 1 mps 572 mmHg 54%
    20:00 +14°C° 0 mm 1 mps 572 mmHg 59%
    21:00 +14°C° 0 mm 1 mps 572 mmHg 60%
    22:00 +14°C° 0 mm 1 mps 572 mmHg 61%
    23:00 +14°C° 0 mm 1 mps 572 mmHg 62%

    Tomorrow, 23 January, Thursday

    Time Temperature Precipitation Wind Pressure Humidity
    00:00 +13°C° 0 mm 1 mps 572 mmHg 67%
    01:00 +12°C° 0 mm 1 mps 571 mmHg 72%
    02:00 +11°C° 0 mm 1 mps 570 mmHg 77%
    03:00 +11°C° 0 mm 1 mps 570 mmHg 78%
    04:00 +11°C° 0 mm 1 mps 570 mmHg 79%
    05:00 +10°C° 0 mm 0 mps 570 mmHg 80%
    06:00 +12°C° 0 mm 1 mps 571 mmHg 75%
    07:00 +13°C° 0 mm 1 mps 572 mmHg 71%
    08:00 +14°C° 0 mm 1 mps 573 mmHg 66%
    09:00 +15°C° 0.2 mm 1 mps 573 mmHg 60%
    10:00 +16°C° 0.2 mm 2 mps 573 mmHg 55%
    11:00 +17°C° 0.2 mm 3 mps 573 mmHg 49%
    12:00 +17°C° 0.2 mm 3 mps 573 mmHg 49%
    13:00 +17°C° 0.2 mm 3 mps 572 mmHg 49%
    14:00 +17°C° 0.2 mm 3 mps 572 mmHg 49%
    15:00 +16°C° 0.7 mm 3 mps 571 mmHg 58%
    16:00 +13°C° 0.7 mm 3 mps 570 mmHg 67%
    17:00 +11°C° 0.7 mm 3 mps 570 mmHg 77%
    18:00 +11°C° 0.6 mm 3 mps 570 mmHg 78%
    19:00 +10°C° 0.6 mm 2 mps 570 mmHg 79%
    20:00 +11°C° 0.6 mm 1 mps 571 mmHg 80%
    21:00 +11°C° 0.2 mm 1 mps 571 mmHg 79%
    22:00 +11°C° 0.2 mm 1 mps 571 mmHg 79%
    23:00 +11°C° 0.2 mm 1 mps 571 mmHg 78%

    Day after tomorrow, 24 January, Friday

    Time Temperature Precipitation Wind Pressure Humidity
    00:00 +11°C° 0 mm 1 mps 571 mmHg 78%
    01:00 +11°C° 0 mm 1 mps 570 mmHg 78%
    02:00 +11°C° 0 mm 1 mps 570 mmHg 78%
    03:00 +11°C° 0 mm 1 mps 570 mmHg 80%
    04:00 +10°C° 0 mm 1 mps 570 mmHg 82%
    05:00 +10°C° 0 mm 1 mps 570 mmHg 84%
    06:00 +10°C° 0 mm 1 mps 571 mmHg 80%
    07:00 +11°C° 0 mm 1 mps 571 mmHg 77%
    08:00 +12°C° 0 mm 1 mps 572 mmHg 74%
    09:00 +13°C° 0 mm 1 mps 573 mmHg 67%
    10:00 +14°C° 0 mm 1 mps 573 mmHg 60%
    11:00 +16°C° 0 mm 1 mps 574 mmHg 54%
    12:00 +16°C° 0.1 mm 2 mps 573 mmHg 54%
    13:00 +16°C° 0.1 mm 2 mps 573 mmHg 55%
    14:00 +16°C° 0.1 mm 2 mps 572 mmHg 56%
    15:00 +15°C° 0.1 mm 2 mps 572 mmHg 62%
    16:00 +14°C° 0.1 mm 2 mps 571 mmHg 68%
    17:00 +14°C° 0.1 mm 2 mps 571 mmHg 74%
    18:00 +13°C° 0.1 mm 2 mps 571 mmHg 78%
    19:00 +12°C° 0.1 mm 2 mps 571 mmHg 83%
    20:00 +12°C° 0.1 mm 2 mps 572 mmHg 88%
    21:00 +10°C° 0 mm 2 mps 571 mmHg 89%
    22:00 +11°C° 0 mm 1 mps 571 mmHg 90%
    23:00 +11°C° 0 mm 1 mps 571 mmHg 91%

    25 January, Saturday

    Time Temperature Precipitation Wind Pressure Humidity
    00:00 +10°C° 0 mm 1 mps 571 mmHg 91%
    01:00 +10°C° 0 mm 1 mps 570 mmHg 91%
    02:00 +9°C° 0 mm 0 mps 570 mmHg 91%
    03:00 +9°C° 0 mm 0 mps 570 mmHg 91%
    04:00 +8°C° 0 mm 0 mps 570 mmHg 90%
    05:00 +8°C° 0 mm 0 mps 570 mmHg 90%
    06:00 +10°C° 0 mm 1 mps 571 mmHg 84%
    07:00 +11°C° 0 mm 1 mps 572 mmHg 78%
    08:00 +12°C° 0 mm 1 mps 573 mmHg 72%
    09:00 +14°C° 0 mm 1 mps 574 mmHg 63%
    10:00 +16°C° 0 mm 2 mps 574 mmHg 54%
    11:00 +18°C° 0 mm 2 mps 575 mmHg 45%
    12:00 +18°C° 0 mm 2 mps 574 mmHg 42%
    13:00 +19°C° 0 mm 3 mps 574 mmHg 40%
    14:00 +20°C° 0 mm 3 mps 574 mmHg 37%
    15:00 +19°C° 0.1 mm 3 mps 573 mmHg 42%
    16:00 +18°C° 0.1 mm 2 mps 573 mmHg 48%
    17:00 +17°C° 0.1 mm 2 mps 573 mmHg 53%
    18:00 +16°C° 0.1 mm 2 mps 573 mmHg 59%
    19:00 +15°C° 0.1 mm 1 mps 573 mmHg 65%
    20:00 +14°C° 0.1 mm 1 mps 573 mmHg 71%
    21:00 +14°C° 0 mm 1 mps 572 mmHg 72%
    22:00 +13°C° 0 mm 1 mps 572 mmHg 73%
    23:00 +12°C° 0 mm 0 mps 572 mmHg 75%

    26 January, Sunday

    Time Temperature Precipitation Wind Pressure Humidity
    00:00 +11°C° 0 mm 0 mps 572 mmHg 77%
    01:00 +10°C° 0 mm 0 mps 571 mmHg 79%
    02:00 +10°C° 0 mm 0 mps 571 mmHg 81%
    03:00 +10°C° 0 mm 0 mps 570 mmHg 82%
    04:00 +9°C° 0 mm 0 mps 570 mmHg 83%
    05:00 +9°C° 0 mm 0 mps 570 mmHg 84%
    06:00 +10°C° 0 mm 0 mps 571 mmHg 78%
    07:00 +11°C° 0 mm 0 mps 572 mmHg 72%
    08:00 +13°C° 0 mm 0 mps 573 mmHg 66%
    09:00 +15°C° 0 mm 1 mps 574 mmHg 59%
    10:00 +16°C° 0 mm 1 mps 574 mmHg 51%
    11:00 +18°C° 0 mm 2 mps 574 mmHg 44%
    12:00 +18°C° 0.2 mm 2 mps 574 mmHg 44%
    13:00 +18°C° 0.2 mm 2 mps 574 mmHg 44%
    14:00 +18°C° 0.2 mm 3 mps 573 mmHg 44%
    15:00 +17°C° 0.6 mm 2 mps 573 mmHg 49%
    16:00 +16°C° 0.6 mm 2 mps 573 mmHg 55%
    17:00 +15°C° 0.6 mm 2 mps 572 mmHg 60%
    18:00 +14°C° 0.5 mm 1 mps 572 mmHg 66%
    19:00 +13°C° 0.5 mm 1 mps 573 mmHg 72%
    20:00 +13°C° 0.5 mm 1 mps 573 mmHg 79%
    21:00 +12°C° 0.2 mm 1 mps 572 mmHg 82%
    22:00 +11°C° 0.2 mm 1 mps 572 mmHg 85%
    23:00 +11°C° 0.2 mm 1 mps 572 mmHg 88%

    27 January, Monday

    Time Temperature Precipitation Wind Pressure Humidity
    00:00 +11°C° 0.1 mm 1 mps 572 mmHg 90%
    01:00 +10°C° 0.1 mm 1 mps 571 mmHg 91%
    02:00 +9°C° 0.1 mm 2 mps 571 mmHg 92%
    03:00 +10°C° 0.1 mm 1 mps 571 mmHg 93%
    04:00 +10°C° 0.1 mm 1 mps 571 mmHg 94%
    05:00 +9°C° 0.1 mm 1 mps 571 mmHg 95%
    06:00 +10°C° 0 mm 1 mps 571 mmHg 92%
    07:00 +10°C° 0 mm 1 mps 572 mmHg 89%
    08:00 +11°C° 0 mm 1 mps 572 mmHg 86%
    09:00 +12°C° 0.1 mm 1 mps 573 mmHg 77%
    10:00 +14°C° 0.1 mm 1 mps 573 mmHg 69%
    11:00 +15°C° 0.1 mm 1 mps 573 mmHg 60%
    12:00 +16°C° 0 mm 2 mps 573 mmHg 54%
    13:00 +17°C° 0 mm 2 mps 573 mmHg 47%
    14:00 +18°C° 0 mm 2 mps 573 mmHg 41%
    15:00 +17°C° 0 mm 2 mps 572 mmHg 47%
    16:00 +16°C° 0 mm 3 mps 572 mmHg 52%
    17:00 +14°C° 0 mm 3 mps 571 mmHg 58%
    18:00 +14°C° 0 mm 2 mps 571 mmHg 66%
    19:00 +13°C° 0 mm 2 mps 571 mmHg 74%
    20:00 +11°C° 0 mm 1 mps 571 mmHg 82%
    21:00 +11°C° 0 mm 1 mps 571 mmHg 78%
    22:00 +11°C° 0 mm 1 mps 570 mmHg 74%
    23:00 +11°C° 0 mm 1 mps 570 mmHg 69%
    Show more